Location: Caltech
(34.1382°N, 118.1253°W)
Time: 14:04:02
(UTC-07:00)

Iridium 59 - Visible Passes

Search period start: 23 April 2018 00:00
Search period end: 03 May 2018 00:00
Orbit: 776 x 779 km, 86.4° (Epoch: 23 April)

Date Brightness Start Highest point End Pass type
(mag) Time Alt. Az. Time Alt. Az. Time Alt. Az.
23 Apr 6.3 20:20:04 13° SE 20:23:11 22° E 20:27:04 10° NE visible
23 Apr 6.4 22:00:29 18° SW 22:03:36 34° W 22:08:20 10° NNW visible
24 Apr 5.3 21:26:10 18° SSW 21:30:00 68° W 21:35:12 10° N visible
25 Apr 5.0 20:51:45 12° SSE 20:56:30 62° E 21:01:39 10° N visible
25 Apr 7.8 22:35:43 10° W 22:37:37 12° WNW 22:39:32 10° NW visible
26 Apr 5.8 20:18:34 10° SE 20:23:07 32° E 20:27:42 10° NNE visible
26 Apr 7.1 21:59:42 10° SW 22:03:48 23° W 22:07:56 10° NNW visible
27 Apr 6.1 21:25:10 10° SSW 21:30:08 45° W 21:35:06 10° NNW visible
28 Apr 5.0 20:51:21 10° S 20:56:33 88° W 21:01:47 10° N visible
29 Apr 5.3 20:18:08 10° SSE 20:23:06 47° E 20:28:06 10° NNE visible
29 Apr 7.7 22:00:58 10° WSW 22:04:03 16° WNW 22:07:09 10° NW visible
30 Apr 6.8 21:25:45 10° SW 21:30:17 30° W 21:34:51 10° NNW visible
01 May 5.6 20:51:32 10° SSW 20:56:39 59° W 21:01:48 10° N visible
02 May 5.0 20:17:58 10° S 20:23:08 72° E 20:28:20 10° N visible
02 May 8.2 22:04:00 10° W 22:04:20 10° WNW 22:04:42 10° WNW visible
